Hourly Data Report for July 27, 2017

CAPE RACE (AUT)
NEWFOUNDLAND

46°39'36.000" N
53°04'35.000" W
26.50 m
8401000
71800
WRA

Download Data

Hourly Data (July 2017)
Hourly Data Report for July 27, 2017
TIME
LST
Temp Definition
°C
Dew Point Definition
°C
Rel Hum Definition
%
Precip. Amount Definition
mm

Wind Dir Definition
10's deg

Wind Spd Definition
km/h
Visibility Definition
km
Stn Press Definition
kPa
Hmdx Definition


Wind Chill Definition


Weather Definition


00:30 8.8 8.5 98 0.0 25 20   101.50     LegendNANA
01:30 9.5 9.4 99 0.0 23 20   101.45     LegendNANA
02:30 9.3 9.1 99 0.0 22 18   101.41     LegendNANA
03:30 9.6 9.4 99 0.0 25 19   101.40     LegendNANA
04:30 9.3 9.1 99 0.0 25 24   101.39     LegendNANA
05:30 10.6 10.5 99 0.0 25 30   101.38     LegendNANA
06:30 11.2 10.7 97 1.1 24 28   101.37     LegendNANA
07:30 12.6 11.6 93 0.0 23 31   101.35     LegendNANA
08:30 13.2 11.7 91 0.0 23 32   101.36     LegendNANA
09:30 14.4 12.2 87 0.0 25 40   101.38     LegendNANA
10:30 13.5 11.7 89 0.0 23 36   101.34     LegendNANA
11:30 15.7 13.4 86 0.0 25 46   101.30     LegendNANA
12:30 16.5 13.6 83 0.0 25 38   101.25     LegendNANA
13:30 15.9 13.4 85 0.0 24 39   101.21     LegendNANA
14:30 16.0 13.8 86 0.0 25 45   101.21     LegendNANA
15:30 15.0 13.0 88 0.0 25 41   101.21     LegendNANA
16:30 14.6 12.8 89 0.0 25 36   101.19     LegendNANA
17:30 12.7 12.1 96 0.0 26 31   101.17     LegendNANA
18:30 12.2 11.8 97 0.0 25 29   101.16     LegendNANA
19:30 12.4 12.3 99 0.0 25 28   101.17     LegendNANA
20:30 12.3 12.2 100 0.0 24 23   101.21     LegendNANA
21:30 11.6 11.6 100 0.0 23 17   101.20     LegendNANA
22:30 11.2 11.2 100 0.0 22 16   101.18     LegendNANA
23:30 11.9 LegendMM 100 0.0 25 24   101.21     LegendNANA

Notes on Data Quality.

Legend

  • E = Estimated
  • M = Missing
  • NA = Not Available*
  • [empty] = Indicates an unobserved value
Date modified: